Regional Weather Roundup
Issued by NWS Little Rock, AR

Home | Current Version | Previous Version | Graphics & Text | Print | Product List | Glossary On
Versions: 1 2 3 4 5 6 7 8 9 10 11 12 13 14 15 16 17 18 19 20 21 22 23 24 25 26 27 28 29 30 31 32
000
ASUS44 KLZK 290905
RWRLZK

WEATHER ROUNDUP FOR ARKANSAS
NATIONAL WEATHER SERVICE LITTLE ROCK AR
400 AM CDT SAT APR 29 2017

NOTE: "FAIR" INDICATES FEW OR NO CLOUDS BELOW 12,000 FEET WITH NO
SIGNIFICANT WEATHER AND/OR OBSTRUCTIONS TO VISIBILITY.

ARZ001-003-010-029-291000-
NORTHWEST ARKANSAS

CITY           SKY/WX    TMP DP  RH WIND       PRES   REMARKS
FAYETTEVILLE   CLOUDY    65  64  97 E7        29.67F
FORT SMITH     PTCLDY    76  67  73 S6        29.60F
HARRISON       FOG       64  64 100 NW10      29.74S VSB 1/2
BENTONVILLE    CLOUDY    63  61  94 E10G18    29.67F
ROGERS         LGT RAIN  62  61  96 E13       29.68F
SILOAM SPGS    CLOUDY    63  59  88 E7G17     29.66R
HIGHFILL       CLOUDY    63  62  97 E13G23    29.66S
$$

ARZ004-005-016-291000-
NORTH CENTRAL ARKANSAS

CITY           SKY/WX    TMP DP  RH WIND       PRES   REMARKS
BATESVILLE     CLOUDY    73  70  88 S7        29.75S
FLIPPIN        CLOUDY   N/A N/A N/A CALM      29.69S
MTN HOME       CLOUDY    67  66  97 E6        29.72S FOG
$$

ARZ040-041-291000-
WEST CENTRAL ARKANSAS

CITY           SKY/WX    TMP DP  RH WIND       PRES   REMARKS
MENA           CLOUDY    77  75  94 SE5       29.68S
MOUNT IDA      CLOUDY    76  73  91 VRB5      29.66F FOG
$$

ARZ009-017-025-026-028-291000-
NORTHEAST ARKANSAS

CITY           SKY/WX    TMP DP  RH WIND       PRES   REMARKS
CORNING        CLOUDY    75  73  94 S17G23    29.78R
JONESBORO      CLOUDY    76  70  82 S14G23    29.77S
NEWPORT        CLOUDY    75  71  87 S14       29.76R
WALNUT RIDGE   CLOUDY    75  68  78 S15       29.76R
BLYTHEVILLE    CLOUDY    76  70  82 S12       29.81R
$$

ARZ022-023-033-042-044-291000-
CENTRAL ARKANSAS

CITY           SKY/WX    TMP DP  RH WIND       PRES   REMARKS
LITTLE ROCK    CLOUDY    77  72  84 S12       29.73R
N LITTLE ROCK    N/A     76  71  84 S9G20     29.72S
JACKSONVILLE   CLOUDY    78  72  82 S7        29.73R
CONWAY           N/A     77  72  83 S12G17    29.70R HAZE
SEARCY         CLOUDY    76  73  91 S12       29.76S
HOT SPRINGS    CLOUDY    77  73  87 S7        29.70F
RUSSELLVILLE   CLOUDY    77  72  84 SE5       29.67F
CLINTON        CLOUDY    73  72  94 E5        29.72F FOG
$$

ARZ036-291000-
EAST ARKANSAS

CITY           SKY/WX    TMP DP  RH WIND       PRES   REMARKS
WEST MEMPHIS   CLOUDY    75  71  87 S18       29.79R
$$

ARZ050-053-066-070-073-291000-
SOUTHWEST ARKANSAS

CITY           SKY/WX    TMP DP  RH WIND       PRES   REMARKS
ARKADELPHIA    CLOUDY    78  72  81 S15G22    29.70
CAMDEN         CLOUDY    79  68  69 S15G22    29.71S
TEXARKANA      CLOUDY    77  73  87 S16G26    29.67F
EL DORADO      LGT RAIN  78  71  79 S17G29    29.73S
DE QUEEN       LGT RAIN  76  75  97 SE6       29.63F FOG
$$

ARZ056-057-069-291000-
SOUTHEAST ARKANSAS

CITY           SKY/WX    TMP DP  RH WIND       PRES   REMARKS
PINE BLUFF     CLOUDY    78  70  76 S22G28    29.75R
STUTTGART      CLOUDY    77  64  65 S22       29.76R
MONTICELLO     CLOUDY    77  70  79 S14G25    29.75F

$$






USA.gov is the U.S. government's official web portal to all federal, state and local government web resources and services.